sat.trackr.live / text

‹ back to catalog

STARLINK-6265

NORAD 56557 · 2023-065BG

PAYLOAD ACTIVE UNKNOWN

§ Identity

Operator
Country
US
Launch date
2023-05-14
Launch site
AFETR
Launch vehicle
Mass (kg)
RCS (m²)

Purposes: comms

External: N2YO · Heavens-Above · Gunter

§ Orbital elements

Epoch: 2026-09-20T13:15:44.073216Z

Period
94.27 min
Inclination
43.0045°
Eccentricity
0.0000964
Mean motion
15.27578387 rev/d
Perigee alt
482.4 km
Apogee alt
483.7 km
Semi-major
6,861.2 km
B*
1.3225e-5
RAAN
203.1239°
Arg perigee
282.4333°
Mean anomaly
77.6411°
Rev number
18,627

§ Raw data

STARLINK-62651 56557U 23065BG  26263.55259344  .00000102  00000+0  13225-4 0  99992 56557  43.0045 203.1239 0000964 282.4333  77.6411 15.27578387186273

JSON: /api/v1/satellites/56557 · /tle

For live sub-satellite position, see the globe view (requires WebGL).

§ Visibility from observer

Set your observer location to see the next 7 days of passes ≥ 10°. The values pass through the URL so the page stays shareable.

No JS? Fill the form by hand. The geolocation button needs JavaScript.